TimeEST,TemperatureF,Dew PointF,Humidity,Sea Level PressureIn,VisibilityMPH,Wind Direction,Wind SpeedMPH,Gust SpeedMPH,PrecipitationIn,Events,Conditions,WindDirDegrees,DateUTC
12:26 AM,26.1,25.0,96,29.90,1.0,SSE,3.5,-,N/A,,Clear,160,2014-02-22 05:26:00
12:33 AM,26.1,25.0,96,29.90,0.8,Calm,Calm,-,N/A,,Clear,0,2014-02-22 05:33:00
12:36 AM,26.1,25.0,96,29.90,1.5,Calm,Calm,-,N/A,,Clear,0,2014-02-22 05:36:00
12:44 AM,26.1,25.0,96,29.90,2.5,Calm,Calm,-,N/A,,Clear,0,2014-02-22 05:44:00
12:53 AM,27.0,25.0,92,29.92,3.0,South,3.5,-,N/A,,Clear,190,2014-02-22 05:53:00
1:53 AM,-9999,-9999,N/A,29.91,6.0,SW,5.8,-,N/A,,Haze,220,2014-02-22 06:53:00
2:26 AM,-9999,-9999,N/A,29.91,2.0,Calm,Calm,-,N/A,,Clear,0,2014-02-22 07:26:00
2:45 AM,-9999,-9999,N/A,29.92,1.2,Calm,Calm,-,N/A,,Clear,0,2014-02-22 07:45:00
2:53 AM,25.0,24.1,96,29.93,0.5,Calm,Calm,-,N/A,Fog,Light Freezing Fog,0,2014-02-22 07:53:00
3:21 AM,23.0,21.9,96,29.92,0.2,Calm,Calm,-,N/A,Fog,Light Freezing Fog,0,2014-02-22 08:21:00
3:38 AM,26.1,23.0,88,29.93,1.2,Calm,Calm,-,N/A,,Partly Cloudy,0,2014-02-22 08:38:00
3:45 AM,25.0,23.0,92,29.93,2.0,Calm,Calm,-,N/A,,Partly Cloudy,0,2014-02-22 08:45:00
3:53 AM,23.0,21.9,96,29.95,1.2,Calm,Calm,-,N/A,,Clear,0,2014-02-22 08:53:00
4:05 AM,24.1,21.9,91,29.94,2.0,Calm,Calm,-,N/A,,Clear,0,2014-02-22 09:05:00
4:09 AM,21.9,21.0,96,29.94,1.2,Calm,Calm,-,N/A,,Clear,0,2014-02-22 09:09:00
4:16 AM,23.0,21.0,92,29.95,0.2,Calm,Calm,-,N/A,Fog,Light Freezing Fog,0,2014-02-22 09:16:00
4:36 AM,24.1,21.9,91,29.96,1.5,SW,5.8,-,N/A,,Partly Cloudy,220,2014-02-22 09:36:00
4:39 AM,25.0,23.0,92,29.96,3.0,SSW,4.6,-,N/A,,Partly Cloudy,210,2014-02-22 09:39:00
4:53 AM,25.0,23.0,92,29.98,4.0,Calm,Calm,-,N/A,,Clear,0,2014-02-22 09:53:00
5:53 AM,24.1,23.0,96,29.99,6.0,Calm,Calm,-,N/A,,Clear,0,2014-02-22 10:53:00
6:53 AM,25.0,23.0,92,30.00,3.0,Calm,Calm,-,N/A,,Clear,0,2014-02-22 11:53:00
7:53 AM,25.0,25.0,100,30.01,3.0,Calm,Calm,-,N/A,,Clear,0,2014-02-22 12:53:00
8:53 AM,35.1,27.0,72,30.01,10.0,SW,5.8,-,N/A,,Clear,220,2014-02-22 13:53:00
9:53 AM,41.0,23.0,49,30.00,10.0,SW,10.4,18.4,N/A,,Clear,220,2014-02-22 14:53:00
10:53 AM,44.1,21.0,40,29.98,10.0,SW,11.5,21.9,N/A,,Partly Cloudy,230,2014-02-22 15:53:00
11:53 AM,46.0,19.9,35,29.97,10.0,SW,13.8,26.5,N/A,,Clear,230,2014-02-22 16:53:00
12:53 PM,48.0,19.9,33,29.95,10.0,SW,11.5,27.6,N/A,,Clear,220,2014-02-22 17:53:00
1:53 PM,48.0,19.0,32,29.91,10.0,SW,17.3,31.1,N/A,,Clear,220,2014-02-22 18:53:00
2:53 PM,48.9,19.9,32,29.93,10.0,SW,16.1,26.5,N/A,,Clear,230,2014-02-22 19:53:00
3:53 PM,50.0,19.9,31,29.93,10.0,SW,15.0,23.0,N/A,,Clear,220,2014-02-22 20:53:00
4:53 PM,48.9,21.0,33,29.94,10.0,SW,9.2,19.6,N/A,,Clear,220,2014-02-22 21:53:00
5:53 PM,46.9,21.0,36,29.96,10.0,SW,5.8,-,N/A,,Clear,230,2014-02-22 22:53:00
6:53 PM,44.1,21.9,42,29.98,10.0,SW,5.8,-,N/A,,Clear,220,2014-02-22 23:53:00
7:53 PM,37.9,24.1,57,29.99,10.0,SW,3.5,-,N/A,,Clear,230,2014-02-23 00:53:00
8:53 PM,35.1,24.1,64,29.99,10.0,SW,3.5,-,N/A,,Clear,220,2014-02-23 01:53:00
9:53 PM,30.9,24.1,76,29.99,10.0,Calm,Calm,-,N/A,,Clear,0,2014-02-23 02:53:00
10:53 PM,28.9,24.1,82,30.00,10.0,Calm,Calm,-,N/A,,Clear,0,2014-02-23 03:53:00
11:53 PM,27.0,23.0,85,30.00,10.0,Calm,Calm,-,N/A,,Clear,0,2014-02-23 04:53:00